Retour au catalogue

STARLINK-32355

ActifCommunicationsVLEO
NORAD 61634·PAYLOAD·🇺🇸 United States

Lancé Oct 23, 2024 depuis Cape Canaveral Space Force Station

Loading…

Prochains Passages (prochaines 24 heures)

TLE

FraisSource: CelesTrak SupGP

Époque: Sep 14, 2026, 21:14 UTC

1 61634C 24191P   26257.88520833 -.00027328  00000+0 -98922-3 0  2579
2 61634  43.0001 169.8215 0000925 276.3556 226.0483 15.27612079    18

Suivez STARLINK-32355 en temps réel avec AllMySat

Download on the App Store